Location: Cossonay
(46.5833°N, 6.4167°E)
Time: 20:37:26
(UTC+00:00)

ARIANE 5 R/B - Pass Details

Date: 07 June 2020
Orbit: 748 x 795 km, 98.6° (Epoch: 13 July)

Event Time Altitude Azimuth Distance (km) Brightness Sun altitude
Rises 02:52:11 0° 10° (N) 3,223 6.8 -7.4°
Reaches altitude 10° 02:54:31 10° 7° (N) 2,289 5.8 -7.1°
Maximum altitude 02:59:27 60° 289° (WNW) 863 2.7 -6.5°
Drops below altitude 10° 03:04:20 10° 211° (SSW) 2,261 4.3 -5.9°
Enters shadow 03:05:22 - 209° (SSW) 2,671 4.7 -5.7°
